[Date Prev][Date Next][Thread Prev][Thread Next] - [Date Index][Thread Index][Author Index]

2 Line ISS Keps 5-4



ISS
1 25544U 98067A   02124.17334491  .00040235  00000-0  51546-3 0  3915
2 25544  51.6374 274.1848 0007583  32.7095 325.8614 15.58737481197152


----
Via the sarex mailing list at AMSAT.ORG courtesy of AMSAT-NA.
To unsubscribe, send "unsubscribe sarex" to Majordomo@amsat.org



AMSAT Top AMSAT Home